KLM274 EKCH-EHAM

Flight info

Callsign KLM274
Flight time 1h 1m
Altitude 36000
Route LANGO M611 ALASA DCT WANZA N872 KUBAT T200 BLUFA
Aircraft A21N/M-SDE2E3FGHIRWXY/LB1

Departure

Time 2026-05-07 19:22
Airport Copenhagen Kastrup Airport (EKCH)

Arrival

Time 2026-05-07 20:24
Airport Amsterdam Airport Schiphol (EHAM)
Time Latitude Longitude Altitude Speed Heading
2026-05-07 19:02 55.62671 12.64432 27 ft 0 kts 101°
2026-05-07 19:03 55.62671 12.64433 27 ft 0 kts 101°
2026-05-07 19:11 55.62673 12.64413 26 ft 4 kts 100°
2026-05-07 19:11 55.62677 12.64377 24 ft 4 kts 100°
2026-05-07 19:11 55.62677 12.64334 24 ft 4 kts 56°
2026-05-07 19:12 55.62660 12.64311 26 ft 4 kts 21°
2026-05-07 19:12 55.62635 12.64293 26 ft 4 kts 28°
2026-05-07 19:12 55.62617 12.64274 26 ft 4 kts 32°
2026-05-07 19:12 55.62594 12.64248 28 ft 4 kts 33°
2026-05-07 19:13 55.62572 12.64222 27 ft 4 kts 33°
2026-05-07 19:13 55.62553 12.64195 27 ft 4 kts 59°
2026-05-07 19:13 55.62546 12.64153 24 ft 4 kts 98°
2026-05-07 19:13 55.62555 12.64113 25 ft 4 kts 123°
2026-05-07 19:14 55.62569 12.64073 27 ft 4 kts 123°
2026-05-07 19:14 55.62575 12.64058 27 ft 1 kts 123°
2026-05-07 19:17 55.62558 12.64106 26 ft 11 kts 121°
2026-05-07 19:17 55.62515 12.64230 24 ft 14 kts 122°
2026-05-07 19:17 55.62447 12.64391 24 ft 16 kts 133°
2026-05-07 19:17 55.62337 12.64425 23 ft 20 kts 189°
2026-05-07 19:18 55.62185 12.64413 19 ft 22 kts 171°
2026-05-07 19:18 55.62045 12.64458 25 ft 20 kts 169°
2026-05-07 19:18 55.61909 12.64505 24 ft 20 kts 169°
2026-05-07 19:18 55.61778 12.64549 26 ft 19 kts 169°
2026-05-07 19:19 55.61635 12.64522 26 ft 25 kts 208°
2026-05-07 19:19 55.61471 12.64329 25 ft 29 kts 213°
2026-05-07 19:19 55.61303 12.64142 24 ft 28 kts 212°
2026-05-07 19:19 55.61143 12.63955 24 ft 27 kts 214°
2026-05-07 19:20 55.60992 12.63773 24 ft 26 kts 214°
2026-05-07 19:20 55.60862 12.63624 24 ft 15 kts 204°
2026-05-07 19:20 55.60771 12.63647 23 ft 16 kts 141°
2026-05-07 19:20 55.60696 12.63817 22 ft 18 kts 95°
2026-05-07 19:21 55.60727 12.63943 22 ft 0 kts 45°
2026-05-07 19:21 55.60745 12.63971 22 ft 20 kts 40°
2026-05-07 19:21 55.61042 12.64424 19 ft 91 kts 41°
2026-05-07 19:22 55.61648 12.65379 19 ft 143 kts 41°
2026-05-07 19:22 55.62503 12.66661 45 ft 180 kts 39°
2026-05-07 19:22 55.63469 12.68102 516 ft 185 kts 40°
2026-05-07 19:22 55.64434 12.69604 1188 ft 183 kts 40°
2026-05-07 19:23 55.65427 12.71160 1511 ft 201 kts 39°
2026-05-07 19:23 55.66551 12.72875 1738 ft 226 kts 41°
2026-05-07 19:23 55.67480 12.75272 2068 ft 250 kts 71°
2026-05-07 19:23 55.67590 12.78372 2743 ft 260 kts 101°
2026-05-07 19:24 55.66806 12.81282 3548 ft 267 kts 130°
2026-05-07 19:24 55.65312 12.83229 4353 ft 271 kts 158°
2026-05-07 19:24 55.63476 12.83922 5175 ft 273 kts 181°
2026-05-07 19:24 55.61619 12.83228 5966 ft 276 kts 206°
2026-05-07 19:25 55.60093 12.81171 6764 ft 278 kts 231°
2026-05-07 19:25 55.59002 12.78360 7520 ft 280 kts 237°
2026-05-07 19:25 55.57924 12.75454 8254 ft 284 kts 237°
2026-05-07 19:25 55.56830 12.72515 8976 ft 288 kts 236°
2026-05-07 19:26 55.55717 12.69546 9695 ft 292 kts 236°
2026-05-07 19:26 55.54587 12.66539 10357 ft 297 kts 236°
2026-05-07 19:26 55.53401 12.63388 10519 ft 320 kts 236°
2026-05-07 19:26 55.52129 12.60012 10632 ft 342 kts 236°
2026-05-07 19:27 55.50766 12.56406 10853 ft 359 kts 236°
2026-05-07 19:27 55.49366 12.52701 11408 ft 365 kts 236°
2026-05-07 19:27 55.47955 12.48965 12044 ft 368 kts 236°
2026-05-07 19:27 55.46531 12.45203 12732 ft 371 kts 236°
2026-05-07 19:28 55.45094 12.41407 13404 ft 373 kts 237°
2026-05-07 19:28 55.43649 12.37586 14062 ft 376 kts 237°
2026-05-07 19:28 55.42190 12.33739 14650 ft 379 kts 237°
2026-05-07 19:28 55.40718 12.29875 15233 ft 381 kts 237°
2026-05-07 19:29 55.39238 12.26004 15809 ft 383 kts 236°
2026-05-07 19:29 55.37748 12.22119 16384 ft 385 kts 236°
2026-05-07 19:29 55.36235 12.18174 16948 ft 388 kts 237°
2026-05-07 19:29 55.34725 12.14235 17499 ft 390 kts 237°
2026-05-07 19:30 55.33210 12.10282 18051 ft 393 kts 237°
2026-05-07 19:30 55.31676 12.06282 18557 ft 395 kts 237°
2026-05-07 19:30 55.30132 12.02270 19028 ft 398 kts 237°
2026-05-07 19:30 55.28576 11.98237 19460 ft 400 kts 237°
2026-05-07 19:31 55.27005 11.94181 19893 ft 403 kts 236°
2026-05-07 19:31 55.25427 11.90115 20336 ft 406 kts 236°
2026-05-07 19:31 55.23828 11.85995 20774 ft 409 kts 236°
2026-05-07 19:31 55.22229 11.81876 21198 ft 412 kts 236°
2026-05-07 19:32 55.20613 11.77720 21600 ft 415 kts 236°
2026-05-07 19:32 55.19000 11.73578 21992 ft 418 kts 236°
2026-05-07 19:32 55.17355 11.69360 22421 ft 421 kts 236°
2026-05-07 19:32 55.15697 11.65112 22828 ft 424 kts 236°
2026-05-07 19:33 55.14026 11.60842 23247 ft 427 kts 236°
2026-05-07 19:33 55.12339 11.56542 23662 ft 430 kts 236°
2026-05-07 19:33 55.10645 11.52233 24014 ft 432 kts 236°
2026-05-07 19:33 55.08937 11.47907 24347 ft 434 kts 236°
2026-05-07 19:34 55.07218 11.43562 24679 ft 437 kts 236°
2026-05-07 19:34 55.05485 11.39184 25009 ft 439 kts 236°
2026-05-07 19:34 55.03751 11.34801 25330 ft 441 kts 236°
2026-05-07 19:34 55.02002 11.30387 25656 ft 444 kts 236°
2026-05-07 19:35 55.00238 11.25943 25969 ft 446 kts 236°
2026-05-07 19:35 54.98463 11.21487 26254 ft 449 kts 236°
2026-05-07 19:35 54.96680 11.17013 26558 ft 452 kts 236°
2026-05-07 19:35 54.94893 11.12534 26857 ft 454 kts 235°
2026-05-07 19:36 54.93079 11.08007 27156 ft 456 kts 235°
2026-05-07 19:36 54.91251 11.03450 27448 ft 459 kts 235°
2026-05-07 19:36 54.89419 10.98883 27741 ft 461 kts 235°
2026-05-07 19:36 54.87581 10.94309 28038 ft 463 kts 235°
2026-05-07 19:37 54.85732 10.89713 28339 ft 465 kts 235°
2026-05-07 19:37 54.83871 10.85103 28675 ft 466 kts 235°
2026-05-07 19:37 54.82006 10.80496 28998 ft 467 kts 235°
2026-05-07 19:37 54.80135 10.75895 29396 ft 466 kts 234°
2026-05-07 19:38 54.78267 10.71314 29775 ft 466 kts 234°
2026-05-07 19:38 54.76396 10.66718 30092 ft 467 kts 234°
2026-05-07 19:38 54.74531 10.62141 30397 ft 467 kts 234°
2026-05-07 19:38 54.72654 10.57547 30710 ft 467 kts 234°
2026-05-07 19:39 54.70780 10.52968 31016 ft 467 kts 234°
2026-05-07 19:39 54.68897 10.48368 31326 ft 467 kts 234°
2026-05-07 19:39 54.67024 10.43797 31632 ft 467 kts 234°
2026-05-07 19:39 54.65141 10.39213 31945 ft 467 kts 234°
2026-05-07 19:40 54.63259 10.34644 32251 ft 467 kts 234°
2026-05-07 19:40 54.61377 10.30087 32584 ft 467 kts 234°
2026-05-07 19:40 54.59353 10.25707 32881 ft 466 kts 223°
2026-05-07 19:40 54.56933 10.22010 33168 ft 466 kts 220°
2026-05-07 19:41 54.54479 10.18336 33445 ft 467 kts 220°
2026-05-07 19:41 54.52030 10.14672 33746 ft 467 kts 220°
2026-05-07 19:41 54.49584 10.11014 34048 ft 467 kts 220°
2026-05-07 19:41 54.47126 10.07342 34319 ft 467 kts 220°
2026-05-07 19:42 54.44689 10.03704 34595 ft 466 kts 220°
2026-05-07 19:42 54.42244 10.00055 34881 ft 464 kts 220°
2026-05-07 19:42 54.39809 9.96422 35168 ft 462 kts 220°
2026-05-07 19:42 54.37384 9.92807 35457 ft 461 kts 220°
2026-05-07 19:43 54.34976 9.89219 35739 ft 459 kts 220°
2026-05-07 19:43 54.32567 9.85631 36040 ft 457 kts 220°
2026-05-07 19:43 54.27789 9.78522 36142 ft 454 kts 220°
2026-05-07 19:44 54.23029 9.71448 36137 ft 453 kts 220°
2026-05-07 19:44 54.18286 9.64406 36144 ft 452 kts 220°
2026-05-07 19:45 54.13884 9.56815 36133 ft 453 kts 236°
2026-05-07 19:45 54.10446 9.47774 36129 ft 452 kts 236°
2026-05-07 19:46 54.07043 9.38782 36143 ft 452 kts 236°
2026-05-07 19:46 54.03638 9.29797 36134 ft 451 kts 236°
2026-05-07 19:47 54.00218 9.20834 36133 ft 451 kts 236°
2026-05-07 19:47 53.97359 9.13380 36128 ft 451 kts 236°
2026-05-07 19:48 53.93947 9.04513 36123 ft 451 kts 236°
2026-05-07 19:48 53.90511 8.95615 36131 ft 450 kts 236°
2026-05-07 19:49 53.87087 8.86760 36138 ft 449 kts 236°
2026-05-07 19:49 53.83664 8.77950 36135 ft 448 kts 236°
2026-05-07 19:50 53.80233 8.69162 36115 ft 447 kts 236°
2026-05-07 19:50 53.76798 8.60397 36131 ft 447 kts 236°
2026-05-07 19:51 53.73363 8.51651 36132 ft 447 kts 235°
2026-05-07 19:51 53.69900 8.42857 36130 ft 447 kts 235°
2026-05-07 19:52 53.66479 8.34212 36135 ft 446 kts 236°
2026-05-07 19:52 53.63033 8.25520 36134 ft 445 kts 236°
2026-05-07 19:53 53.59591 8.16869 36129 ft 444 kts 236°
2026-05-07 19:53 53.56126 8.08207 36121 ft 444 kts 235°
2026-05-07 19:54 53.52694 7.99659 36121 ft 443 kts 235°
2026-05-07 19:54 53.49227 7.91035 36118 ft 443 kts 235°
2026-05-07 19:55 53.45795 7.82539 36132 ft 442 kts 236°
2026-05-07 19:55 53.42320 7.73971 36133 ft 441 kts 235°
2026-05-07 19:56 53.38889 7.65530 36116 ft 441 kts 235°
2026-05-07 19:56 53.35410 7.56994 36122 ft 441 kts 235°
2026-05-07 19:57 53.31970 7.48598 36102 ft 439 kts 235°
2026-05-07 19:57 53.30216 7.44327 35504 ft 439 kts 235°
2026-05-07 19:57 53.28486 7.40116 34873 ft 440 kts 235°
2026-05-07 19:58 53.26754 7.35903 34242 ft 441 kts 234°
2026-05-07 19:58 53.25012 7.31668 33515 ft 442 kts 234°
2026-05-07 19:58 53.23267 7.27439 32772 ft 443 kts 234°
2026-05-07 19:58 53.21505 7.23186 32032 ft 444 kts 235°
2026-05-07 19:59 53.19750 7.18961 31321 ft 445 kts 234°
2026-05-07 19:59 53.17980 7.14705 30583 ft 446 kts 234°
2026-05-07 19:59 53.16209 7.10449 29789 ft 447 kts 234°
2026-05-07 19:59 53.14440 7.06201 28905 ft 448 kts 234°
2026-05-07 20:00 53.12664 7.01940 28202 ft 446 kts 234°
2026-05-07 20:00 53.10908 6.97730 27581 ft 441 kts 234°
2026-05-07 20:00 53.09165 6.93558 26987 ft 436 kts 235°
2026-05-07 20:00 53.07436 6.89428 26367 ft 433 kts 234°
2026-05-07 20:01 53.05723 6.85349 25768 ft 429 kts 234°
2026-05-07 20:01 53.04015 6.81293 25198 ft 425 kts 235°
2026-05-07 20:01 53.02327 6.77291 24630 ft 422 kts 235°
2026-05-07 20:01 53.01219 6.74663 24249 ft 420 kts 235°
2026-05-07 20:02 52.98991 6.69392 23485 ft 416 kts 235°
2026-05-07 20:02 52.97333 6.65474 22836 ft 412 kts 235°
2026-05-07 20:02 52.95689 6.61596 22206 ft 409 kts 234°
2026-05-07 20:02 52.94064 6.57774 21595 ft 405 kts 234°
2026-05-07 20:03 52.92469 6.54025 21003 ft 401 kts 234°
2026-05-07 20:03 52.90866 6.50268 20411 ft 397 kts 234°
2026-05-07 20:03 52.89283 6.46563 19832 ft 394 kts 234°
2026-05-07 20:03 52.87701 6.42864 19298 ft 390 kts 234°
2026-05-07 20:04 52.86141 6.39228 18720 ft 388 kts 234°
2026-05-07 20:04 52.84583 6.35597 18147 ft 385 kts 234°
2026-05-07 20:04 52.83045 6.32007 17562 ft 381 kts 234°
2026-05-07 20:04 52.81526 6.28426 16994 ft 378 kts 235°
2026-05-07 20:05 52.80033 6.24867 16407 ft 376 kts 235°
2026-05-07 20:05 52.78559 6.21336 15877 ft 372 kts 235°
2026-05-07 20:05 52.77093 6.17828 15383 ft 369 kts 235°
2026-05-07 20:05 52.75638 6.14361 14844 ft 366 kts 235°
2026-05-07 20:06 52.74187 6.10915 14332 ft 365 kts 235°
2026-05-07 20:06 52.72746 6.07498 13848 ft 362 kts 235°
2026-05-07 20:06 52.71312 6.04109 13315 ft 359 kts 235°
2026-05-07 20:06 52.69881 6.00738 12763 ft 357 kts 235°
2026-05-07 20:07 52.68464 5.97401 12246 ft 354 kts 235°
2026-05-07 20:07 52.67060 5.94094 11738 ft 351 kts 235°
2026-05-07 20:07 52.65664 5.90814 11226 ft 349 kts 235°
2026-05-07 20:07 52.64271 5.87546 10712 ft 347 kts 235°
2026-05-07 20:08 52.62890 5.84311 10189 ft 345 kts 235°
2026-05-07 20:08 52.61521 5.81110 9938 ft 335 kts 235°
2026-05-07 20:08 52.60206 5.78039 9792 ft 321 kts 235°
2026-05-07 20:08 52.58943 5.75095 9657 ft 309 kts 235°
2026-05-07 20:09 52.57730 5.72269 9508 ft 297 kts 235°
2026-05-07 20:09 52.56562 5.69550 9381 ft 286 kts 235°
2026-05-07 20:09 52.55427 5.66912 9108 ft 280 kts 235°
2026-05-07 20:10 52.53207 5.61761 8389 ft 275 kts 234°
2026-05-07 20:10 52.52098 5.59185 7996 ft 274 kts 234°
2026-05-07 20:10 52.51000 5.56638 7631 ft 273 kts 234°
2026-05-07 20:10 52.49909 5.54095 7252 ft 271 kts 234°
2026-05-07 20:11 52.48838 5.51575 7107 ft 268 kts 234°
2026-05-07 20:11 52.47772 5.49062 7108 ft 270 kts 234°
2026-05-07 20:11 52.46697 5.46540 7049 ft 268 kts 234°
2026-05-07 20:11 52.45627 5.44038 6649 ft 267 kts 234°
2026-05-07 20:12 52.44564 5.41549 6273 ft 265 kts 234°
2026-05-07 20:12 52.43506 5.39070 5862 ft 265 kts 233°
2026-05-07 20:12 52.42455 5.36617 5457 ft 264 kts 234°
2026-05-07 20:12 52.41399 5.34154 5041 ft 264 kts 234°
2026-05-07 20:13 52.40341 5.31691 4631 ft 264 kts 233°
2026-05-07 20:13 52.39297 5.29264 4222 ft 264 kts 234°
2026-05-07 20:13 52.38232 5.26791 3942 ft 262 kts 234°
2026-05-07 20:13 52.37186 5.24370 3820 ft 265 kts 233°
2026-05-07 20:14 52.36107 5.21870 3691 ft 266 kts 233°
2026-05-07 20:14 52.35040 5.19390 3558 ft 266 kts 234°
2026-05-07 20:14 52.33976 5.16920 3444 ft 265 kts 234°
2026-05-07 20:14 52.32915 5.14462 3297 ft 265 kts 233°
2026-05-07 20:15 52.31850 5.11998 3172 ft 265 kts 233°
2026-05-07 20:15 52.30786 5.09549 3043 ft 265 kts 233°
2026-05-07 20:15 52.29723 5.07103 2911 ft 265 kts 233°
2026-05-07 20:15 52.28659 5.04651 2790 ft 264 kts 233°
2026-05-07 20:16 52.27592 5.02202 2654 ft 264 kts 233°
2026-05-07 20:16 52.26532 4.99771 2531 ft 263 kts 233°
2026-05-07 20:16 52.25467 4.97329 2401 ft 263 kts 233°
2026-05-07 20:16 52.24407 4.94899 2268 ft 263 kts 234°
2026-05-07 20:17 52.23228 4.92637 2151 ft 262 kts 219°
2026-05-07 20:17 52.21712 4.91047 2034 ft 258 kts 201°
2026-05-07 20:17 52.19999 4.90280 2027 ft 255 kts 184°
2026-05-07 20:17 52.18225 4.90102 2032 ft 255 kts 181°
2026-05-07 20:18 52.16444 4.89943 2028 ft 257 kts 181°
2026-05-07 20:18 52.14658 4.89777 2030 ft 257 kts 181°
2026-05-07 20:18 52.12905 4.89223 2023 ft 260 kts 204°
2026-05-07 20:18 52.11513 4.87378 2025 ft 262 kts 234°
2026-05-07 20:19 52.10873 4.84628 2027 ft 262 kts 265°
2026-05-07 20:19 52.11042 4.81716 2020 ft 254 kts 288°
2026-05-07 20:19 52.11806 4.79269 2038 ft 233 kts 310°
2026-05-07 20:19 52.12957 4.77562 2025 ft 218 kts 330°
2026-05-07 20:20 52.14285 4.76661 2035 ft 195 kts 350°
2026-05-07 20:20 52.15539 4.76485 2041 ft 171 kts
2026-05-07 20:20 52.16687 4.76597 2036 ft 160 kts
2026-05-07 20:20 52.17761 4.76692 2030 ft 151 kts
2026-05-07 20:21 52.18802 4.76785 2029 ft 148 kts
2026-05-07 20:21 52.19829 4.76878 2032 ft 148 kts
2026-05-07 20:21 52.20867 4.76975 1850 ft 150 kts
2026-05-07 20:21 52.21904 4.77071 1523 ft 147 kts
2026-05-07 20:22 52.22919 4.77165 1295 ft 145 kts
2026-05-07 20:22 52.23915 4.77257 1077 ft 143 kts
2026-05-07 20:22 52.24902 4.77348 871 ft 140 kts
2026-05-07 20:22 52.25872 4.77437 679 ft 140 kts
2026-05-07 20:23 52.26847 4.77528 488 ft 141 kts
2026-05-07 20:23 52.27831 4.77619 301 ft 141 kts
2026-05-07 20:23 52.28796 4.77708 104 ft 139 kts
2026-05-07 20:23 52.29752 4.77794 -2 ft 128 kts
2026-05-07 20:24 52.30531 4.77871 0 ft 98 kts
2026-05-07 20:24 52.30924 4.77839 -3 ft 17 kts 314°
2026-05-07 20:24 52.31027 4.77745 -1 ft 18 kts 335°
2026-05-07 20:24 52.31134 4.77644 -1 ft 17 kts 313°
2026-05-07 20:25 52.31131 4.77499 -1 ft 13 kts 213°
2026-05-07 20:25 52.31074 4.77430 -1 ft 12 kts 267°
2026-05-07 20:25 52.30996 4.77355 -1 ft 0 kts 173°